This demonstration page uses our WeatherBlox Daily Observations layout. Learn more.

Left ArrowRight Arrow

38.20091, -84.87328

Hourly Observations for July 26, 2019

Temp ( °F °C ) Dew Point ( °F °C ) Humidity (%) Winds ( mph kmh ) Pressure ( in mb ) Visibility ( mi km ) Precip ( " mm )
12:53 am 00:53 Clear 65 18.3 61 16.1 87 87 Calm 30.19 1022 10 16 0.00 0.00
1:53 am 01:53 Clear 64 17.8 61 16.1 90 90 Calm 30.19 1022 10 16 0.00 0.00
2:53 am 02:53 Clear 63 17.2 61 16.1 93 93 Calm 30.18 1022 10 16 0.00 0.00
3:53 am 03:53 Clear 63 17.2 60 15.6 90 90 Calm 30.19 1022 10 16 0.00 0.00
4:53 am 04:53 Clear with Mist and Fog 61 16.1 59 15 93 93 Calm 30.19 1022 6 10 0.00 0.00
5:53 am 05:53 Clear 61 16.1 58 14.4 90 90 Calm 30.20 1023 7 11 0.00 0.00
6:53 am 06:53 Sunny with Mist and Fog 60 15.6 58 14.4 93 93 Calm 30.22 1023 6 10 0.00 0.00
7:53 am 07:53 Sunny with Mist and Fog 66 18.9 63 17.2 90 90 Calm 30.23 1024 6 10 0.00 0.00
8:53 am 08:53 Sunny 72 22.2 63 17.2 73 73 Calm 30.24 1024 8 13 0.00 0.00
9:53 am 09:53 Sunny 76 24.4 62 16.7 62 62 Calm 30.25 1025 8 13 0.00 0.00
10:53 am 10:53 Sunny 79 26.1 62 16.7 56 56 VRB 3 6 30.25 1024 9 14 0.00 0.00
11:53 am 11:53 Sunny 82 27.8 59 15 46 46 WNW 5 7 30.25 1025 10 16 0.00 0.00
12:53 pm 12:53 Sunny 84 28.9 58 14.4 41 41 Calm 30.25 1024 9 14 0.00 0.00
1:53 pm 13:53 Sunny 85 29.4 58 14.4 40 40 E 5 7 30.24 1024 9 14 0.00 0.00
2:53 pm 14:53 Cloudy 85 29.4 58 14.4 40 40 Calm 30.22 1023 10 16 0.00 0.00
3:53 pm 15:53 Cloudy 87 30.6 58 14.4 37 37 Calm 30.21 1023 10 16 0.00 0.00
4:53 pm 16:53 Partly Cloudy 86 30 59 15 40 40 VRB 3 6 30.20 1023 8 13 0.00 0.00
5:53 pm 17:53 Sunny 85 29.4 59 15 42 42 S 7 11 30.19 1022 9 14 0.00 0.00
6:53 pm 18:53 Mostly Cloudy 83 28.3 58 14.4 43 43 WSW 3 6 30.19 1022 8 13 0.00 0.00
7:53 pm 19:53 Mostly Cloudy 82 27.8 61 16.1 49 49 S 6 9 30.19 1022 8 13 0.00 0.00
8:53 pm 20:53 Sunny 76 24.4 64 17.8 67 67 Calm 30.19 1022 8 13 0.00 0.00
9:53 pm 21:53 Clear 73 22.8 64 17.8 74 74 Calm 30.21 1023 8 13 0.00 0.00
10:53 pm 22:53 Clear 71 21.7 63 17.2 76 76 Calm 30.22 1023 8 13 0.00 0.00
11:53 pm 23:53 Clear 68 20 63 17.2 84 84 Calm 30.21 1023 10 16 0.00 0.00

Powered by AerisWeather